星链-5385 (STARLINK-5385 )

导读 | 星芒AI

STARLINK-5385 是 SpaceX Starlink 项目中的一颗低轨通信卫星,属于第二代 Starlink 卫星(v1.5 或 v2 型号)。该卫星用于提供全球宽带互联网服务,具备高带宽、低延迟特性,支持偏远地区网络接入。它运行在约 550 公里的轨道高度,采用先进推进系统和激光通信技术,以提升网络效率和卫星间通信能力。STARLINK-5385 的发射和运行有助于扩展 Starlink 的覆盖范围和系统稳定性。

基本信息
目录编号:
54821
目录名称:
STARLINK-5385
国际标识:
2022-177B
轨道中心:
EARTH
卫星名称:
星链-5385
卫星全名:
星链-5385 (STARLINK-5385 )
卫星状态:
在轨 (已飞行1042 天)
发射日期:
2022-12-28 UTC
国别 :
美国 (US)
星等 :
--
轨道信息
数据来源 国际轨道数据
星历时间: 2025-11-04T02:40:48+0800
1天前
查看轨道信息
半长轴: 6937.153km
偏心率: 0.0000875
轨道倾角: 43.002°
近地点辐角 268.643°
升交点赤经 97.618°
平近点角 91.431°
近地点: 558.41km
远地点: 559.626km
周期: 95.837分钟
每日圈数: 15.025569
详细信息
固有亮度:
5
最大亮度:
2.5
卫星平台:
Starlink v1.5
覆盖范围:
全球
运营商:
太空探索技术公司
运营商所在国:
美国
制造商(研发单位):
太空探索技术公司
制造商所在国:
美国
使用方式:
暂无
卫星简介
星链(Starlink)计划是由太空探索技术公司(SpaceX)提出的一个巨型低轨卫星互联网星座项目,计划在2019年至2024年间在太空搭建由约1.2万颗卫星组成的“星链”网络,其中1584颗将部署在地球上空550千米处的近地轨道,并从2020年开始工作。该卫星仍在工作。
2D轨道图
3D轨道图
轨道高度分析图
轨道倾角分析图
轨道综合分析图
查看轨道综合分析图